Miscellaneous Local Product
Issued by NWS North Platte, NE

Home | Current Version | Previous Version | Text Only | Print | Product List | Glossary On
Versions: 1 2 3 4 5 6 7 8 9 10 11 12 13 14 15 16 17 18 19 20 21 22 23 24 25 26 27 28 29 30 31 32 33 34 35 36 37 38 39 40 41 42 43 44 45 46 47 48 49 50
000
AXUS43 KLBF 200810
MISLBF


WESTERN AND NORTH CENTRAL NEBRASKA HOURLY WEATHER ROUNDUP
NATIONAL WEATHER SERVICE NORTH PLATTE NE
200 AM CST MON NOV 20 2017

NOTE: "FAIR" INDICATES FEW OR NO CLOUDS BELOW 12,000 FEET WITH NO
SIGNIFICANT WEATHER AND/OR OBSTRUCTIONS TO VISIBILITY.

NOTE: STATIONS NOT REPORTING VARIABLES SUCH AS SKY/WEATHER OR
PRESSURE ARE PROVIDED BY RAWS AND APRS NETWORKS AND ARE NOT UNDER
NATIONAL WEATHER SERVICE QUALITY CONTROL.

...OBSERVATIONS IN AND NEAR THE EASTERN PANHANDLE OF NEBRASKA...

CITY           SKY/WX    TMP DP  RH WIND       PRES   REMARKS
PINE RIDGE     CLOUDY    39  13  34 W3        29.75F
GORDON         FAIR      33  15  48 W10       29.72F WCI  24
CHADRON        CLOUDY    22  14  71 SW5       29.75F WCI  16
ALLIANCE       CLOUDY    32  15  49 W13       29.77F WCI  22
SIDNEY         CLOUDY    28  11  48 W13       29.83F WCI  17
CRESCENT LAKE    N/A     38  10  30 W6          N/A  WCI  33
$$

...OBSERVATIONS IN NORTHERN NEBRASKA AND FAR SOUTHERN SOUTH DAKOTA...

CITY           SKY/WX    TMP DP  RH WIND       PRES   REMARKS
WINNER         FAIR      39  20  46 SW15      29.67F WCI  31
VALENTINE      CLEAR     33  19  56 SW12      29.70F WCI  24
THEDFORD       CLOUDY    37  19  47 W5        29.76F WCI  33
AINSWORTH      CLEAR     37  19  48 W13       29.71F WCI  28
O`NEILL        CLOUDY    35  27  73 S10       29.71F WCI  27
ORD            CLOUDY    36  24  62 VRB3      29.76F
BROKEN BOW     CLOUDY    37  23  56 W10       29.77F WCI  30
VALENTINE NWR    N/A     39  13  34 W9          N/A  WCI  33
HALSEY           N/A     38  20  48 SW5         N/A  WCI  34
BUTTE            N/A     35  23  62 SW7         N/A  WCI  29
CHAMBERS         N/A     34  23  63 W7          N/A  WCI  28
EWING            N/A     35  26  70 CALM        N/A
$$

...OBSERVATIONS IN SOUTHWEST NEBRASKA AND FAR NORTHEAST COLORADO...

CITY           SKY/WX    TMP DP  RH WIND       PRES   REMARKS
HOLYOKE        FAIR      34  19  55 W10       29.85F WCI  26
IMPERIAL       CLOUDY    30  18  60 W9        29.84F WCI  22
OGALLALA       CLOUDY    28  21  75 W10       29.82S WCI  18
NORTH PLATTE   CLOUDY    24  18  77 NW3       29.81F
MCCOOK         CLEAR     37  22  54 W12       29.84S WCI  29
LEXINGTON      CLOUDY    37  23  58 W5        29.80F WCI  33
STAPLETON        N/A     35  21  57 CALM        N/A
GOTHENBURG       N/A     38  20  48 W3          N/A
CALLAWAY         N/A     38  24  57 W8          N/A  WCI  32
$$

...OBSERVATIONS IN CENTRAL LINCOLN COUNTY AREA...

CITY           SKY/WX    TMP DP  RH WIND       PRES   REMARKS
N.P. AIRPORT   CLOUDY    24  18  77 NW3       29.81F
N.P. DOWNTOWN    N/A     30  22  73 CALM        N/A
N.P. SOUTHEAST   N/A     31  21  67 CALM        N/A
N.P. HILLCREST   N/A     33  23  66 W3          N/A
$$

...SOME OBSERVATIONS FROM AROUND THE REGION...

CITY           SKY/WX    TMP DP  RH WIND       PRES   REMARKS
DENVER         PTCLDY    39   7  26 SW14      29.90F WCI  31
LIMON          CLOUDY    22  13  68 N6        29.94F WCI  14
ASPEN          CLOUDY    19  11  70 CALM      30.18S
LARAMIE        CLOUDY    37   5  26 W28G39    29.93F WCI  25
CASPER         CLOUDY    38  12  34 SW28G37   29.85F WCI  26
CHEYENNE       CLOUDY    43   2  18 SW18G28   29.89F
SCOTTSBLUFF    CLOUDY    45   9  23 W17       29.80F
GRAND ISLAND   CLOUDY    38  27  64 SW10      29.81F WCI  31
OMAHA          CLOUDY    34  25  69 S9        29.85F WCI  27
SIOUX FALLS    CLOUDY    30  23  75 S5        29.71F WCI  25
PIERRE         PTCLDY    29  20  69 S3        29.63F
RAPID CITY     CLOUDY    29  16  58 CALM      29.65F
BISMARCK       CLOUDY    27  21  78 CALM      29.56F
KANSAS CITY    CLOUDY    44  28  53 SW16G26   29.99F
HILL CITY      CLEAR     37  23  56 SW9       29.86F WCI  30
WICHITA        CLOUDY    41  26  55 S10       30.02F
DODGE CITY     CLEAR     37  17  44 S15       29.92F WCI  28
OKLAHOMA CITY  PTCLDY    38  27  64 S12       30.11F WCI  30
DALLAS         CLOUDY    43  34  70 SW5       30.18F
AMARILLO       CLOUDY    37  16  42 SW13      30.04F WCI  29
$$




USA.gov is the U.S. government's official web portal to all federal, state and local government web resources and services.